Regional Weather Roundup
Issued by NWS

Home | Current Version | Previous Version | Graphics & Text | Print | Product List | Glossary On
Versions: 1 2 3 4 5 6 7 8 9 10 11 12 13 14 15 16 17 18 19 20 21 22 23 24 25 26 27 28 29 30 31 32 33 34 35 36 37 38 39 40 41 42 43 44 45 46 47 48 49 50
000
ASUS45 KCYS 310310
RWRWY

WYOMING REGIONAL WEATHER ROUNDUP
NATIONAL WEATHER SERVICE CHEYENNE WY
900 PM MDT THU JUL 30 2015

NOTE:  "FAIR" INDICATES FEW OR NO CLOUDS BELOW 12,000 FEET
WITH NO SIGNIFICANT WEATHER AND/OR OBSTRUCTIONS TO VISIBILITY.

WYZ001-310400-
YELLOWSTONE NATIONAL PARK

CITY           SKY/WX    TMP DP  RH WIND       PRES   REMARKS
LK YELLOWSTONE   N/A     57  37  47 NW3       30.52R
W YELLOWSTONE  NOT AVBL

$$
WYZ002>013-054>058-071-098>099-310400-
NORTHERN WYOMING

CITY           SKY/WX    TMP DP  RH WIND       PRES   REMARKS
JACKSON        FAIR      66  36  32 NW3       30.39R
CODY           FAIR      73  39  29 NE3       30.30R
GREYBULL       FAIR      85  31  14 CALM      30.19R
WORLAND        FAIR      72  32  23 E5        30.21R
SHERIDAN       FAIR      69  45  41 NW6       30.23R
BUFFALO        FAIR      70  42  36 W8        30.31R
GILLETTE       FAIR      64  41  42 N3        30.25R
HULETT         FAIR      68  43  40 E8        30.26S
NEWCASTLE      FAIR      70  36  28 NE5       30.25R

$$
WYZ014>020-022>026-101>103-310400-
CENTRAL WYOMING

CITY           SKY/WX    TMP DP  RH WIND       PRES   REMARKS
BIG PINEY      FAIR      67  26  21 N12       30.41S
PINEDALE       FAIR      61  34  36 MISG      30.43R
DUBOIS         FAIR      68  23  18 W9        30.42R
LANDER         FAIR      74  32  21 SW9       30.29R
RIVERTON       FAIR      76  24  14 NE9       30.29R
CASPER         FAIR      67  30  25 N8        30.30R
DOUGLAS        FAIR      69  41  36 E9        30.29R

$$
WYZ021-027>030-104>119-310400-
SOUTHERN WYOMING

CITY           SKY/WX    TMP DP  RH WIND       PRES   REMARKS
EVANSTON       FAIR      70  21  15 N9        30.43R
KEMMERER       FAIR      66  23  19 NW9       30.45R
FORT BRIDGER   CLEAR     72  19  14 NW6       30.44R
ROCK SPRINGS   FAIR      75  17  11 N5        30.38R
DIXON          FAIR      67  18  15 NE8       30.38R
RAWLINS        FAIR      64  19  17 NW6       30.39R
SARATOGA       FAIR      70  27  19 CALM      30.41R
LARAMIE        FAIR      67  40  37 E15       30.43R
CHEYENNE       FAIR      69  41  36 E6        30.37R
TORRINGTON     FAIR      70  48  45 NE10      30.24R
PINE BLUFFS    FAIR      68  54  60 SE7       30.32R

$$


USA.gov is the U.S. government's official web portal to all federal, state and local government web resources and services.